Date String (YYYY-MM-DD hh:mm:ss) UTC,Instrument flags,Ambient pressure (hPa),Sample flow (lpm),Bypass flow (lpm),Sample temperature (°C),Ambient temperature (°C),ASC tube jacket temperature (°C),LED temperature (°C),Box temperature (°C),Sample RH (%),Span deviation,Mass concentration (μg/m³),Mass concentration (μg/m³),Mass concentration (μg/m³)
DateTimeUTC,F1_M11,P_M11,Q1_M11,Q2_M11,T1_M11,T2_M11,T3_M11,T4_M11,T5_M11,U1_M11,ZSPAN_M11,X0_M11,X2_M11,X1_M11
2022-09-07 08:00:00,,0832.7,5.00,0.00,29.8,26.4,00.0,38.5,31.5,15.1,0002.9,0033.54,0021.46,0019.83
2022-09-07 08:01:00,,0832.8,5.01,0.00,29.7,26.7,00.0,38.5,31.3,15.3,0003.2,0033.18,0021.23,0019.63
2022-09-07 08:02:00,,0832.8,5.01,0.00,29.7,27.1,00.0,38.5,31.3,15.3,0003.1,0033.39,0020.97,0019.42
2022-09-07 08:03:00,,0832.7,5.00,0.00,29.7,27.4,00.0,38.4,31.4,15.2,0003.2,0032.78,0020.81,0019.31
2022-09-07 08:04:00,,0832.7,5.00,0.00,29.6,27.7,00.0,38.4,31.4,15.1,0003.3,0032.42,0020.81,0019.31
2022-09-07 08:05:00,,0832.7,5.00,0.00,29.7,28.0,00.0,38.4,31.4,15.0,0003.0,0031.90,0020.81,0019.26
2022-09-07 08:06:00,,0832.8,5.01,0.00,29.7,28.1,00.0,38.4,31.5,15.0,0002.8,0032.08,0020.82,0019.20
2022-09-07 08:07:00,,0832.8,5.00,0.00,29.7,28.3,00.0,38.4,31.5,15.0,0002.8,0032.17,0020.82,0019.18
2022-09-07 08:08:00,,0832.8,4.98,0.00,29.7,28.4,00.0,38.4,31.5,15.1,0002.6,0032.55,0020.86,0019.22
2022-09-07 08:09:00,,0832.8,5.01,0.00,29.7,28.5,00.0,38.4,31.6,15.3,0002.4,0031.72,0020.82,0019.17
2022-09-07 08:10:00,,0832.8,4.99,0.00,29.7,28.6,00.0,38.5,31.6,15.3,0002.2,0031.31,0020.72,0019.08
2022-09-07 08:11:00,,0832.8,5.01,0.00,29.8,28.7,00.0,38.5,31.7,15.2,0002.2,0031.33,0020.65,0019.02
2022-09-07 08:12:00,,0832.7,4.99,0.00,29.8,28.8,00.0,38.5,31.7,15.2,0002.3,0031.01,0020.57,0018.98
2022-09-07 08:13:00,,0832.8,5.01,0.00,29.8,28.8,00.0,38.5,31.7,15.2,0002.1,0030.94,0020.60,0018.96
2022-09-07 08:14:00,,0832.7,4.99,0.00,29.9,28.9,00.0,38.5,31.8,15.2,0001.6,0031.50,0020.59,0018.92
2022-09-07 08:15:00,,0832.8,5.02,0.00,29.9,29.0,00.0,38.6,31.8,15.1,0001.3,0031.97,0020.47,0018.82
2022-09-07 08:16:00,,0832.8,4.99,0.00,29.9,29.0,00.0,38.6,31.9,15.4,0001.6,0032.05,0020.31,0018.65
2022-09-07 08:17:00,,0832.7,5.02,0.00,30.0,29.1,00.0,38.6,31.9,15.5,0001.8,0032.94,0020.10,0018.41
2022-09-07 08:18:00,,0832.8,4.98,0.00,30.0,28.3,00.0,38.6,31.9,15.6,0001.8,0033.13,0019.90,0018.19
2022-09-07 08:19:00,,0832.7,5.01,0.00,30.0,27.2,00.0,38.6,31.7,15.7,0001.7,0033.10,0019.74,0018.07
2022-09-07 08:20:00,,0832.8,5.00,0.00,29.9,27.1,00.0,38.6,31.7,15.6,0001.9,0032.40,0019.63,0017.96
2022-09-07 08:21:00,,0832.7,4.99,0.00,29.9,27.3,00.0,38.6,31.6,15.6,0001.9,0033.69,0019.61,0017.90
2022-09-07 08:22:00,,0832.8,5.00,0.00,29.8,27.6,00.0,38.6,31.6,15.6,0001.8,0033.98,0019.59,0017.83
2022-09-07 08:23:00,,0832.8,5.00,0.00,29.8,27.9,00.0,38.5,31.6,15.6,0001.7,0033.92,0019.57,0017.75
2022-09-07 08:24:00,,0832.9,5.01,0.00,29.8,28.1,00.0,38.6,31.6,15.5,0001.5,0035.27,0019.49,0017.69
2022-09-07 08:25:00,,0832.9,5.01,0.00,29.8,28.3,00.0,38.6,31.7,15.6,0002.0,0035.12,0019.37,0017.62
2022-09-07 08:26:00,,0832.9,4.99,0.00,29.8,28.5,00.0,38.6,31.7,15.5,0002.4,0034.24,0019.29,0017.54
2022-09-07 08:27:00,,0832.8,5.00,0.00,29.9,28.6,00.0,38.6,31.7,15.3,0002.2,0034.36,0019.24,0017.49
2022-09-07 08:28:00,,0832.8,5.01,0.00,29.9,28.7,00.0,38.6,31.7,15.2,0002.1,0033.56,0019.30,0017.54
2022-09-07 08:29:00,,0832.8,5.00,0.00,29.9,28.8,00.0,38.6,31.8,15.2,0002.1,0033.03,0019.35,0017.61
2022-09-07 08:30:00,,0832.8,5.00,0.00,29.9,28.9,00.0,38.6,31.8,15.3,0002.2,0032.30,0019.38,0017.67
2022-09-07 08:31:00,,0832.8,5.01,0.00,30.0,29.0,00.0,38.7,31.9,15.5,0002.2,0032.86,0019.51,0017.75
2022-09-07 08:32:00,,0832.8,4.99,0.00,30.0,29.0,00.0,38.7,31.9,15.5,0002.4,0032.78,0019.62,0017.82
2022-09-07 08:33:00,,0832.8,5.02,0.00,30.0,29.1,00.0,38.7,31.9,15.5,0002.7,0031.71,0019.59,0017.87
2022-09-07 08:34:00,,0832.8,4.98,0.00,30.1,29.1,00.0,38.7,32.0,15.5,0002.7,0031.70,0019.66,0017.91
2022-09-07 08:35:00,,0832.8,5.00,0.00,30.1,28.5,00.0,38.7,32.0,15.5,0002.8,0030.10,0019.74,0018.00
2022-09-07 08:36:00,,0832.8,5.01,0.00,30.0,26.9,00.0,38.7,31.7,15.5,0002.5,0030.32,0019.90,0018.12
2022-09-07 08:37:00,,0832.8,4.99,0.00,29.9,26.3,00.0,38.6,31.7,15.6,0002.4,0031.72,0020.07,0018.24
2022-09-07 08:38:00,,0832.8,4.99,0.00,29.9,26.5,00.0,38.6,31.5,15.7,0002.5,0031.73,0020.17,0018.33
2022-09-07 08:39:00,,0832.8,5.00,0.00,29.8,26.8,00.0,38.5,31.4,15.6,0002.5,0031.80,0020.23,0018.42
2022-09-07 08:40:00,,0832.8,5.00,0.00,29.7,27.2,00.0,38.5,31.4,15.6,0002.5,0031.98,0020.26,0018.47
2022-09-07 08:41:00,,0832.8,4.99,0.00,29.7,27.6,00.0,38.5,31.4,15.5,0002.1,0032.03,0020.29,0018.53
2022-09-07 08:42:00,,0832.8,5.01,0.00,29.7,27.8,00.0,38.5,31.5,15.7,0002.1,0032.39,0020.28,0018.59
2022-09-07 08:43:00,,0832.9,5.01,0.00,29.7,28.1,00.0,38.5,31.5,15.8,0002.0,0031.19,0020.21,0018.64
2022-09-07 08:44:00,,0832.9,4.98,0.00,29.7,28.2,00.0,38.5,31.5,15.9,0001.7,0031.05,0020.30,0018.72
2022-09-07 08:45:00,,0833.0,5.01,0.00,29.7,28.4,00.0,38.5,31.6,16.2,0001.5,0031.18,0020.30,0018.82
2022-09-07 08:46:00,,0833.0,4.99,0.00,29.8,28.5,00.0,38.5,31.6,16.3,0001.7,0031.39,0020.31,0018.87
2022-09-07 08:47:00,,0833.0,5.01,0.00,29.8,28.6,00.0,38.5,31.6,16.4,0001.9,0030.90,0020.32,0018.93
2022-09-07 08:48:00,,0833.0,4.99,0.00,29.8,28.7,00.0,38.5,31.7,16.1,0001.6,0029.99,0020.30,0018.98
2022-09-07 08:49:00,,0832.9,5.01,0.00,29.8,28.7,00.0,38.5,31.7,15.6,0001.4,0029.43,0020.31,0019.03
2022-09-07 08:50:00,,0832.9,5.00,0.00,29.9,28.8,00.0,38.6,31.8,15.5,0001.3,0029.74,0020.33,0019.06
2022-09-07 08:51:00,,0832.9,4.99,0.00,29.9,28.9,00.0,38.6,31.8,15.8,0001.1,0030.50,0020.39,0019.12
2022-09-07 08:52:00,,0832.8,5.02,0.00,29.9,28.9,00.0,38.6,31.8,15.7,0001.2,0031.09,0020.54,0019.17
2022-09-07 08:53:00,,0832.9,4.98,0.00,29.9,28.9,00.0,38.6,31.9,15.9,0001.2,0031.03,0020.63,0019.19
2022-09-07 08:54:00,,0832.9,5.01,0.00,30.0,29.0,00.0,38.6,31.9,16.1,0001.3,0031.61,0020.74,0019.24
2022-09-07 08:55:00,,0833.0,4.99,0.00,30.0,29.0,00.0,38.7,31.9,16.5,0001.6,0032.01,0020.73,0019.21
2022-09-07 08:56:00,,0833.1,5.01,0.00,30.0,29.1,00.0,38.7,32.0,16.3,0001.3,0032.47,0020.72,0019.15
2022-09-07 08:57:00,,0833.1,4.99,0.00,30.1,29.1,00.0,38.7,32.0,16.2,0001.2,0032.29,0020.70,0019.10
2022-09-07 08:58:00,,0833.1,5.01,0.00,30.1,29.1,00.0,38.8,32.0,16.1,0001.3,0031.63,0020.66,0019.03
2022-09-07 08:59:00,,0833.0,4.99,0.00,30.1,29.2,00.0,38.8,32.0,16.2,0001.7,0032.54,0020.63,0018.95
